GW3941 Weather Reports


time (UTC)temp
F
wind
direction
speed
knots
gust
knots
rain 1hr
in
rain 24hr
in
rain mn
in
humidity
%
barometer
mb
20260504002039 52 303 0.9 3.5 0.00 0.00 0.00 53 1012.3
20260504001603 53 303 0.9 3.5 0.00 0.00 0.00 52 1012.3
20260504001039 53 286 0.9 2.6 0.00 0.00 0.00 52 1012.2
20260504000540 53 286 0.9 2.6 0.00 0.00 0.00 51 1012.2
20260504000041 53 286 0.9 2.6 0.00 0.00 0.00 50 1012.2
20260503235538 54 286 0.9 2.6 0.00 0.00 0.00 50 1012.1
20260503235038 54 286 0.9 2.6 0.00 0.00 0.00 49 1012.1
20260503234638 54 286 0.9 2.6 0.00 0.00 0.00 49 1012.1
20260503234039 55 286 0.9 2.6 0.00 0.00 0.00 49 1012.0
20260503233536 55 286 1.7 3.5 0.00 0.00 0.00 48 1012.0
20260503233041 55 286 0.9 7.0 0.00 0.00 0.00 49 1011.9
20260503232536 55 287 2.6 7.0 0.00 0.00 0.00 48 1011.9
20260503232038 55 285 1.7 7.0 0.00 0.00 0.00 47 1011.9
20260503231537 56 266 1.7 7.8 0.00 0.00 0.00 46 1011.9
20260503231037 56 268 1.7 7.8 0.00 0.00 0.00 47 1011.8
20260503230537 56 282 2.6 9.6 0.00 0.00 0.00 46 1011.9
20260503230043 56 283 3.5 9.6 0.00 0.00 0.00 46 1011.7
20260503225536 57 261 1.7 6.1 0.00 0.00 0.00 45 1011.7
20260503225036 57 300 1.7 8.7 0.00 0.00 0.00 45 1011.7
20260503224536 57 261 3.5 13.9 0.00 0.00 0.00 45 1011.6
20260503224036 58 327 3.5 13.9 0.00 0.00 0.00 44 1011.5
20260503223535 58 275 1.7 7.8 0.00 0.00 0.00 44 1011.6
20260503223036 59 346 2.6 10.4 0.00 0.00 0.00 44 1011.5
20260503222535 59 202 2.6 10.4 0.00 0.00 0.00 44 1011.5
20260503222036 59 152 1.7 7.0 0.00 0.00 0.00 42 1011.5
20260503221535 59 225 2.6 7.0 0.00 0.00 0.00 42 1011.5
20260503221035 59 247 2.6 7.0 0.00 0.00 0.00 43 1011.6
20260503220535 59 288 1.7 7.0 0.00 0.00 0.00 44 1011.5
20260503220043 59 250 1.7 7.0 0.00 0.00 0.00 43 1011.5
20260503215534 59 307 1.7 7.0 0.00 0.00 0.00 43 1011.5
20260503215035 59 298 1.7 10.4 0.00 0.00 0.00 43 1011.5
20260503214534 60 340 2.6 9.6 0.00 0.00 0.00 42 1011.4
20260503214038 59 88 0.9 7.8 0.00 0.00 0.00 43 1011.5
20260503213533 59 325 1.7 7.8 0.00 0.00 0.00 42 1011.5
20260503213033 59 292 2.6 7.0 0.00 0.00 0.00 42 1011.5
20260503212536 59 260 1.7 6.1 0.00 0.00 0.00 43 1011.4
20260503212035 59 313 1.7 7.0 0.00 0.00 0.00 42 1011.4
20260503211534 59 212 1.7 9.6 0.00 0.00 0.00 45 1011.5
20260503211033 59 304 2.6 9.6 0.00 0.00 0.00 44 1011.5
20260503210533 60 254 2.6 7.0 0.00 0.00 0.00 42 1011.5
20260503210032 59 190 0.9 7.0 0.00 0.00 0.00 43 1011.5
20260503205535 59 320 1.7 9.6 0.00 0.00 0.00 43 1011.4
20260503205032 59 326 1.7 11.3 0.00 0.00 0.00 43 1011.4
20260503204532 59 276 3.5 11.3 0.00 0.00 0.00 42 1011.4
20260503204032 60 340 3.5 7.8 0.00 0.00 0.00 42 1011.3
20260503203531 59 341 1.7 7.8 0.00 0.00 0.00 44 1011.4
20260503203046 59 295 3.5 7.8 0.00 0.00 0.00 43 1011.5
20260503202530 59 346 2.6 8.7 0.00 0.00 0.00 43 1011.6
20260503202030 59 277 2.6 9.6 0.00 0.00 0.00 43 1011.6
20260503201533 59 286 2.6 9.6 0.00 0.00 0.00 43 1011.6
20260503201032 59 279 4.3 9.6 0.00 0.00 0.00 42 1011.7
20260503200531 59 326 2.6 15.6 0.00 0.00 0.00 43 1011.7
20260503200030 59 333 4.3 11.3 0.00 0.00 0.00 44 1011.7
20260503195530 59 253 3.5 11.3 0.00 0.00 0.00 43 1011.8
20260503195029 59 232 3.5 16.5 0.00 0.00 0.00 44 1011.8
20260503194538 59 256 6.1 16.5 0.00 0.00 0.00 42 1011.7
20260503194029 59 286 3.5 10.4 0.00 0.00 0.00 44 1011.7
20260503193530 59 329 2.6 10.4 0.00 0.00 0.00 42 1011.8
20260503193028 59 282 2.6 7.0 0.00 0.00 0.00 43 1011.9
20260503192527 59 304 1.7 10.4 0.00 0.00 0.00 44 1011.9
20260503192027 58 337 4.3 9.6 0.00 0.00 0.00 41 1011.9
20260503191526 58 319 3.5 9.6 0.00 0.00 0.00 44 1012.0
20260503191027 57 267 4.3 10.4 0.00 0.00 0.00 44 1011.9
20260503190528 58 315 4.3 9.6 0.00 0.00 0.00 44 1011.9
20260503190036 58 336 3.5 9.6 0.00 0.00 0.00 43 1012.1
20260503185528 58 317 3.5 8.7 0.00 0.00 0.00 43 1012.2
20260503185027 58 346 3.5 13.0 0.00 0.00 0.00 43 1012.0
20260503184526 58 240 4.3 13.0 0.00 0.00 0.00 43 1011.9
20260503184023 58 273 3.5 9.6 0.00 0.00 0.00 46 1012.2
20260503183525 57 328 2.6 8.7 0.00 0.00 0.00 46 1012.4
20260503183022 56 37 4.3 11.3 0.00 0.00 0.00 45 1012.3
20260503182521 57 282 4.3 11.3 0.00 0.00 0.00 46 1012.3
20260503182020 56 203 3.5 12.2 0.00 0.00 0.00 46 1012.5
20260503181520 56 360 3.5 11.3 0.00 0.00 0.00 45 1012.4
20260503181020 56 250 2.6 11.3 0.00 0.00 0.00 47 1012.3
20260503180521 56 302 3.5 11.3 0.00 0.00 0.00 46 1012.3
20260503180019 55 324 3.5 11.3 0.00 0.00 0.00 45 1012.4
20260503175517 55 346 4.3 11.3 0.00 0.00 0.00 47 1012.5
20260503175016 53 338 3.5 11.3 0.00 0.00 0.00 49 1012.4
20260503174516 53 350 3.5 10.4 0.00 0.00 0.00 47 1012.4
20260503174016 54 311 4.3 10.4 0.00 0.00 0.00 46 1012.4
20260503173515 54 283 2.6 11.3 0.00 0.00 0.00 48 1012.6
20260503173016 54 334 4.3 11.3 0.00 0.00 0.00 47 1012.5
20260503172516 54 355 3.5 9.6 0.00 0.00 0.00 49 1012.7
20260503172014 54 300 4.3 11.3 0.00 0.00 0.00 48 1012.6
20260503171516 54 235 2.6 11.3 0.00 0.00 0.00 49 1012.8
20260503171014 53 242 3.5 8.7 0.00 0.00 0.00 48 1012.8
20260503170515 54 280 2.6 8.7 0.00 0.00 0.00 48 1012.8
20260503151001 48 75 3.5 8.7 0.00 0.00 0.00 58 1013.7
20260503150502 47 318 3.5 9.6 0.00 0.00 0.00 57 1013.7
20260503131048 45 321 2.6 7.8 0.00 0.00 0.00 66 1013.5
20260503130548 45 327 2.6 8.7 0.00 0.00 0.00 65 1013.6
20260503110536 40 68 1.7 7.8 0.00 0.00 0.00 75 1012.6
20260503081529 42 80 0.9 3.5 0.00 0.00 0.00 70 1011.4
20260503081017 42 78 0.9 3.5 0.00 0.00 0.00 70 1011.4
20260503080517 42 84 0.9 3.5 0.00 0.00 0.00 71 1011.3
20260503072514 42 349 0.9 3.5 0.00 0.00 0.00 70 1011.2
20260503072016 43 345 1.7 3.5 0.00 0.00 0.00 69 1011.3
20260503071513 43 344 0.9 3.5 0.00 0.00 0.00 69 1011.2
20260503071013 43 345 0.9 4.3 0.00 0.00 0.00 69 1011.1
20260503070511 43 344 0.9 5.2 0.00 0.00 0.00 70 1011.1
20260503055005 44 32 0.9 4.3 0.00 0.00 0.00 67 1011.2
20260503054503 44 104 0.9 4.3 0.00 0.00 0.00 67 1011.3
20260503054003 44 27 0.9 3.5 0.00 0.00 0.00 67 1011.3
20260503053502 44 26 0.9 2.6 0.00 0.00 0.00 66 1011.3
20260503053003 44 26 0.9 2.6 0.00 0.00 0.00 67 1011.4
20260503052559 44 27 0.9 5.2 0.00 0.00 0.00 66 1011.5
20260503052100 45 30 0.9 5.2 0.00 0.00 0.00 66 1011.5
20260503051559 45 307 0.9 3.5 0.00 0.00 0.00 66 1011.5
20260503051058 45 307 0.9 7.0 0.00 0.00 0.00 65 1011.5
20260503050558 45 293 1.7 4.3 0.00 0.00 0.00 65 1011.6
20260503050057 45 350 1.7 7.8 0.00 0.00 0.00 65 1011.6
20260503045558 45 73 0.9 7.8 0.00 0.00 0.00 65 1011.7
20260503045055 45 321 2.6 7.0 0.00 0.00 0.00 65 1011.8
20260503044557 45 248 1.7 5.2 0.00 0.00 0.00 65 1011.9
20260503044055 45 308 1.7 6.1 0.00 0.00 0.00 65 1011.9
20260503043553 45 290 1.7 7.0 0.00 0.00 0.00 64 1012.0
20260503043052 45 265 1.7 7.0 0.00 0.00 0.00 65 1012.0
20260503042551 45 345 1.7 5.2 0.00 0.00 0.00 64 1012.0
20260503042050 46 279 0.9 5.2 0.00 0.00 0.00 64 1012.1
20260503041549 46 288 0.9 4.3 0.00 0.00 0.00 64 1012.1
20260503041048 46 290 0.9 4.3 0.00 0.00 0.00 63 1012.2
20260503040548 46 279 0.9 6.1 0.00 0.00 0.00 63 1012.2
20260503040048 46 278 0.9 6.1 0.00 0.00 0.00 63 1012.2
20260503035546 46 188 0.9 3.5 0.00 0.00 0.00 63 1012.3
20260503035049 46 186 0.9 4.3 0.00 0.00 0.00 63 1012.2
20260503034546 46 182 0.9 4.3 0.00 0.00 0.00 62 1012.1
20260503034047 46 276 0.9 2.6 0.00 0.00 0.00 62 1012.1
20260503033545 46 276 0.9 2.6 0.00 0.00 0.00 62 1012.0
20260503033045 46 276 0.9 2.6 0.00 0.00 0.00 63 1012.1
20260503032545 47 281 0.9 3.5 0.00 0.00 0.00 62 1012.1
20260503032045 47 280 0.9 3.5 0.00 0.00 0.00 61 1012.0
20260503031546 47 280 1.7 3.5 0.00 0.00 0.00 61 1012.1
20260503031045 47 280 1.7 3.5 0.00 0.00 0.00 61 1012.1
20260503030544 47 280 0.9 3.5 0.00 0.00 0.00 61 1012.1
20260503030048 47 279 1.7 3.5 0.00 0.00 0.00 61 1012.2
20260503025544 47 277 1.7 5.2 0.00 0.00 0.00 61 1012.2
20260503025047 47 277 1.7 5.2 0.00 0.00 0.00 61 1012.2
20260503024544 47 275 1.7 5.2 0.00 0.00 0.00 61 1012.2
20260503024045 47 273 1.7 3.5 0.00 0.00 0.00 62 1012.2
20260503023544 47 273 1.7 3.5 0.00 0.00 0.00 62 1012.2
20260503023043 47 273 1.7 3.5 0.00 0.00 0.00 60 1012.2
20260503022543 47 272 0.9 3.5 0.00 0.00 0.00 60 1012.2
20260503022043 47 273 0.9 3.5 0.00 0.00 0.00 60 1012.1
20260503021543 47 273 1.7 3.5 0.00 0.00 0.00 59 1012.2
20260503021043 48 273 0.9 3.5 0.00 0.00 0.00 60 1012.2
20260503020543 48 273 0.9 3.5 0.00 0.00 0.00 59 1012.2
20260503020043 48 271 0.9 3.5 0.00 0.00 0.00 58 1012.2
20260503015542 48 271 0.9 3.5 0.00 0.00 0.00 59 1012.3
20260503015042 48 271 1.7 3.5 0.00 0.00 0.00 58 1012.2
20260503014542 49 269 0.9 2.6 0.00 0.00 0.00 58 1012.2
20260503014042 49 269 0.9 5.2 0.00 0.00 0.00 57 1012.3
20260503013542 49 268 0.9 3.5 0.00 0.00 0.00 58 1012.3
20260503013042 49 268 0.9 2.6 0.00 0.00 0.00 57 1012.3
20260503012542 49 268 0.9 2.6 0.00 0.00 0.00 57 1012.3
20260503012044 49 268 0.0 5.2 0.00 0.00 0.00 57 1012.3
20260503011542 49 268 1.7 5.2 0.00 0.00 0.00 57 1012.4
20260503011043 49 268 0.9 2.6 0.00 0.00 0.00 58 1012.3
20260503010541 49 268 0.9 2.6 0.00 0.00 0.00 57 1012.2
20260503010041 50 267 0.9 2.6 0.00 0.00 0.00 58 1012.0
20260503005541 50 267 0.0 2.6 0.00 0.00 0.00 58 1012.0
20260503005044 50 265 0.9 2.6 0.00 0.00 0.00 60 1012.0
20260503004541 50 265 0.9 2.6 0.00 0.00 0.00 58 1011.8
20260503004040 50 264 0.9 3.5 0.00 0.00 0.00 58 1011.8
20260503003542 50 265 0.9 3.5 0.00 0.00 0.00 58 1011.7
20260503003040 50 261 0.9 2.6 0.00 0.00 0.00 58 1011.6
20260503002539 50 261 0.0 2.6 0.00 0.00 0.00 57 1011.5